Egegik, AK

9:55 AM AKDT on October 23, 2017 (GMT -0800)
Egegik

Weather History for PAII - March, 2014

Change the Weather History Date:

Saturday, March 22, 2014

  Actual Average (PAKN) Record (PAKN)
Temperature  
Mean Temperature 37 °F -  
Max Temperature 44 °F 32 °F 54 °F (1965)
Min Temperature 30 °F 16 °F -25 °F (1975)
Degree Days  
Heating Degree Days 28    
Moisture  
Dew Point 26 °F    
Average Humidity 69    
Maximum Humidity 86    
Minimum Humidity 53    
Precipitation  
Precipitation 0.00 in - - ()
Sea Level Pressure  
Sea Level Pressure 30.22 in    
Wind  
Wind Speed 11 mph (ENE)    
Max Wind Speed 17 mph    
Max Gust Speed 21 mph    
Visibility 10 miles    
Events      
Averages and records for this station are not official NWS values.
T = Trace of Precipitation, MM = Missing Value Source: NWS Daily Summary

Daily Weather History Graph

Daily Weather History Graph

Search for Another Location

Airport or City:

Trip Planner

Search our weather history database for the weather conditions in past years. The results will help you decide how hot, cold, wet, or windy it might be!

Date:

Astronomy

Mar. 22, 2014 Rise Set
Actual Time 8:24 AM AKDT 8:48 PM AKDT
Civil Twilight 7:45 AM AKDT 9:28 PM AKDT
Nautical Twilight 6:58 AM AKDT 10:16 PM AKDT
Astronomical Twilight 6:06 AM AKDT 11:08 PM AKDT
Moon 3:23 AM AKDT (3/22) 11:13 AM AKDT (3/22)
Length of Visible Light 13h 43m
Length of Day
12h 23m
Waning Gibbous, 64% of the Moon is Illuminated
Mar 22
Waning Gibbous
Mar 23
Last Quarter
Mar 30
New
Apr 7
First Quarter
Apr 14
Full

Hourly Weather History & Observations

Time (AKDT) Temp. Windchill Dew Point Humidity Pressure Visibility Wind Dir Wind Speed Gust Speed Precip Events Conditions
12:16 AM 32.0 °F 24.2 °F 21.2 °F 64% 30.19 in 10.0 mi NE 9.2 mph - N/A   Mostly Cloudy
12:36 AM 32.0 °F 23.0 °F 21.2 °F 64% 30.19 in 10.0 mi NE 11.5 mph - N/A   Overcast
12:56 AM 32.0 °F 23.0 °F 21.2 °F 64% 30.18 in 10.0 mi NE 11.5 mph 16.1 mph N/A   Mostly Cloudy
1:16 AM 30.2 °F 20.2 °F 21.2 °F 69% 30.18 in 10.0 mi NE 12.7 mph - N/A   Clear
1:36 AM 30.2 °F 21.3 °F 21.2 °F 69% 30.19 in 10.0 mi NE 10.4 mph 16.1 mph N/A   Mostly Cloudy
1:56 AM 30.2 °F 21.9 °F 21.2 °F 69% 30.19 in 10.0 mi NE 9.2 mph - N/A   Overcast
2:16 AM 32.0 °F 23.6 °F 21.2 °F 64% 30.18 in 10.0 mi NE 10.4 mph - N/A   Overcast
2:36 AM 30.2 °F 22.6 °F 23.0 °F 75% 30.19 in 10.0 mi NE 8.1 mph - N/A   Scattered Clouds
2:56 AM 33.8 °F 26.4 °F 23.0 °F 65% 30.19 in 10.0 mi NE 9.2 mph - N/A   Mostly Cloudy
3:16 AM 32.0 °F 23.0 °F 23.0 °F 69% 30.18 in 10.0 mi NE 11.5 mph - N/A   Overcast
3:36 AM 30.2 °F 20.8 °F 21.2 °F 69% 30.18 in 10.0 mi NE 11.5 mph - N/A   Mostly Cloudy
3:56 AM 30.2 °F 20.8 °F 23.0 °F 75% 30.18 in 10.0 mi NE 11.5 mph - N/A   Partly Cloudy
4:16 AM 30.2 °F 21.3 °F 23.0 °F 75% 30.18 in 10.0 mi NE 10.4 mph - N/A   Mostly Cloudy
4:36 AM 30.2 °F 20.8 °F 23.0 °F 75% 30.18 in 10.0 mi NE 11.5 mph - N/A   Overcast
4:56 AM 30.2 °F 21.3 °F 23.0 °F 75% 30.17 in 10.0 mi NNE 10.4 mph - N/A   Mostly Cloudy
5:16 AM 30.2 °F 20.8 °F 24.8 °F 80% 30.17 in 10.0 mi NE 11.5 mph - N/A   Overcast
5:36 AM 32.0 °F 22.5 °F 23.0 °F 69% 30.17 in 10.0 mi NE 12.7 mph 17.3 mph N/A   Overcast
5:56 AM 33.8 °F 25.8 °F 24.8 °F 70% 30.17 in 10.0 mi NE 10.4 mph 17.3 mph N/A   Overcast
6:16 AM 33.8 °F 25.3 °F 24.8 °F 70% 30.17 in 10.0 mi NE 11.5 mph 16.1 mph N/A   Mostly Cloudy
6:36 AM 32.0 °F 23.0 °F 24.8 °F 75% 30.17 in 10.0 mi NE 11.5 mph - N/A   Overcast
6:56 AM 33.8 °F 24.8 °F 24.8 °F 70% 30.17 in 10.0 mi NE 12.7 mph - N/A   Overcast
7:16 AM 32.0 °F 23.0 °F 24.8 °F 75% 30.18 in 10.0 mi NE 11.5 mph - N/A   Overcast
7:36 AM 33.8 °F 24.8 °F 24.8 °F 70% 30.18 in 10.0 mi NNE 12.7 mph 17.3 mph N/A   Overcast
7:56 AM 32.0 °F 23.0 °F 24.8 °F 75% 30.18 in 10.0 mi NE 11.5 mph 17.3 mph N/A   Overcast
8:16 AM 32.0 °F 24.2 °F 24.8 °F 75% 30.18 in 10.0 mi NE 9.2 mph - N/A   Overcast
8:36 AM 32.0 °F 23.6 °F 24.8 °F 75% 30.19 in 10.0 mi NE 10.4 mph - N/A   Overcast
8:56 AM 32.0 °F 23.6 °F 24.8 °F 75% 30.20 in 10.0 mi NE 10.4 mph - N/A   Overcast
9:16 AM 33.8 °F 25.8 °F 24.8 °F 70% 30.20 in 10.0 mi NE 10.4 mph 16.1 mph N/A   Overcast
9:36 AM 33.8 °F 25.3 °F 24.8 °F 70% 30.20 in 10.0 mi NE 11.5 mph - N/A   Mostly Cloudy
9:56 AM 33.8 °F 24.8 °F 24.8 °F 70% 30.20 in 10.0 mi NE 12.7 mph 17.3 mph N/A   Mostly Cloudy
10:16 AM 33.8 °F 24.8 °F 26.6 °F 75% 30.20 in 10.0 mi NE 12.7 mph 17.3 mph N/A   Clear
10:36 AM 35.6 °F 26.2 °F 26.6 °F 70% 30.21 in 10.0 mi NE 15.0 mph 20.7 mph N/A   Clear
10:56 AM 35.6 °F 27.1 °F 26.6 °F 70% 30.21 in 10.0 mi NE 12.7 mph 19.6 mph N/A   Partly Cloudy
11:16 AM 35.6 °F 26.6 °F 28.4 °F 75% 30.22 in 10.0 mi NE 13.8 mph - N/A   Scattered Clouds
11:36 AM 37.4 °F 29.8 °F 26.6 °F 65% 30.22 in 10.0 mi NE 11.5 mph - N/A   Scattered Clouds
11:56 AM 37.4 °F 29.3 °F 26.6 °F 65% 30.22 in 10.0 mi NE 12.7 mph 19.6 mph N/A   Scattered Clouds
12:16 PM 37.4 °F 30.3 °F 28.4 °F 70% 30.23 in 10.0 mi ENE 10.4 mph - N/A   Mostly Cloudy
12:36 PM 37.4 °F 28.9 °F 28.4 °F 70% 30.22 in 10.0 mi NE 13.8 mph 17.3 mph N/A   Mostly Cloudy
12:56 PM 37.4 °F 28.9 °F 28.4 °F 70% 30.22 in 10.0 mi NE 13.8 mph - N/A   Overcast
1:16 PM 39.2 °F 30.8 °F 28.4 °F 65% 30.22 in 10.0 mi NE 15.0 mph - N/A   Mostly Cloudy
1:36 PM 41.0 °F 33.1 °F 28.4 °F 61% 30.22 in 10.0 mi ENE 15.0 mph 20.7 mph N/A   Mostly Cloudy
1:56 PM 42.8 °F 35.8 °F 30.2 °F 61% 30.22 in 10.0 mi ENE 13.8 mph 19.6 mph N/A   Mostly Cloudy
2:16 PM 42.8 °F 35.8 °F 28.4 °F 57% 30.22 in 10.0 mi ENE 13.8 mph 19.6 mph N/A   Mostly Cloudy
2:36 PM 44.6 °F 37.8 °F 28.4 °F 53% 30.22 in 10.0 mi ENE 15.0 mph 18.4 mph N/A   Mostly Cloudy
2:56 PM 44.6 °F 38.4 °F 30.2 °F 57% 30.22 in 10.0 mi NE 12.7 mph 17.3 mph N/A   Mostly Cloudy
3:16 PM 44.6 °F 38.4 °F 30.2 °F 57% 30.22 in 10.0 mi East 12.7 mph 18.4 mph N/A   Overcast
3:36 PM 44.6 °F 39.2 °F 30.2 °F 57% 30.23 in 10.0 mi ESE 10.4 mph - N/A   Overcast
3:56 PM 44.6 °F 38.8 °F 30.2 °F 57% 30.23 in 10.0 mi ESE 11.5 mph - N/A   Overcast
4:16 PM 44.6 °F 39.2 °F 30.2 °F 57% 30.23 in 10.0 mi ESE 10.4 mph - N/A   Mostly Cloudy
4:36 PM 44.6 °F 39.2 °F 30.2 °F 57% 30.23 in 10.0 mi SE 10.4 mph - N/A   Mostly Cloudy
4:56 PM 42.8 °F 36.2 °F 30.2 °F 61% 30.23 in 10.0 mi SE 12.7 mph - N/A   Mostly Cloudy
5:16 PM 42.8 °F 35.1 °F 30.2 °F 61% 30.23 in 10.0 mi SE 16.1 mph - N/A   Overcast
5:36 PM 42.8 °F 35.1 °F 30.2 °F 61% 30.23 in 10.0 mi SE 16.1 mph - N/A   Mostly Cloudy
5:56 PM 42.8 °F 35.4 °F 30.2 °F 61% 30.23 in 10.0 mi SE 15.0 mph - N/A   Partly Cloudy
6:16 PM 42.8 °F 34.8 °F 30.2 °F 61% 30.23 in 10.0 mi SE 17.3 mph - N/A   Mostly Cloudy
6:36 PM 42.8 °F 35.4 °F 30.2 °F 61% 30.24 in 10.0 mi SE 15.0 mph - N/A   Partly Cloudy
6:56 PM 41.0 °F 33.5 °F 28.4 °F 61% 30.24 in 10.0 mi ESE 13.8 mph - N/A   Clear
7:16 PM 41.0 °F 34.3 °F 28.4 °F 61% 30.24 in 10.0 mi ESE 11.5 mph - N/A   Clear
7:36 PM 39.2 °F 32.0 °F 28.4 °F 65% 30.24 in 10.0 mi ESE 11.5 mph - N/A   Clear
7:56 PM 39.2 °F 32.0 °F 28.4 °F 65% 30.25 in 10.0 mi SE 11.5 mph - N/A   Clear
8:16 PM 37.4 °F 31.4 °F 28.4 °F 70% 30.25 in 10.0 mi ESE 8.1 mph - N/A   Clear
8:36 PM 35.6 °F 29.2 °F 26.6 °F 70% 30.26 in 10.0 mi ESE 8.1 mph - N/A   Clear
8:56 PM 35.6 °F 29.2 °F 26.6 °F 70% 30.26 in 10.0 mi ESE 8.1 mph - N/A   Clear
9:16 PM 33.8 °F 28.6 °F 26.6 °F 75% 30.26 in 10.0 mi East 5.8 mph - N/A   Clear
9:36 PM 33.8 °F 27.7 °F 26.6 °F 75% 30.27 in 10.0 mi East 6.9 mph - N/A   Clear
9:56 PM 33.8 °F 27.7 °F 26.6 °F 75% 30.27 in 10.0 mi East 6.9 mph - N/A   Clear
10:16 PM 32.0 °F 26.4 °F 26.6 °F 80% 30.28 in 10.0 mi East 5.8 mph - N/A   Clear
10:36 PM 33.8 °F 29.6 °F 26.6 °F 75% 30.28 in 10.0 mi East 4.6 mph - N/A   Clear
10:56 PM 32.0 °F 25.6 °F 26.6 °F 80% 30.29 in 10.0 mi East 6.9 mph - N/A   Clear
11:16 PM 32.0 °F 26.4 °F 26.6 °F 80% 30.29 in 10.0 mi East 5.8 mph - N/A   Clear
11:36 PM 30.2 °F 22.6 °F 26.6 °F 86% 30.28 in 10.0 mi East 8.1 mph - N/A   Clear
11:56 PM 30.2 °F 24.3 °F 24.8 °F 80% 30.29 in 10.0 mi ENE 5.8 mph - N/A   Clear